Litchfield, MN

4:55 AM CST on December 03, 2016 (GMT -0600)
Litchfield Municipal

Weather History for KLJF - March, 2015

Change the Weather History Date:

Friday, March 13, 2015

  Actual Average Record
Temperature  
Mean Temperature 46 °F -  
Max Temperature 53 °F 36 °F 68 °F (1990)
Min Temperature 39 °F 20 °F -15 °F (1993)
Degree Days  
Heating Degree Days 19    
Moisture  
Dew Point 40 °F    
Average Humidity 76    
Maximum Humidity 100    
Minimum Humidity 58    
Precipitation  
Precipitation 0.00 in - - ()
Sea Level Pressure  
Sea Level Pressure 30.10 in    
Wind  
Wind Speed 8 mph (WNW)    
Max Wind Speed 22 mph    
Max Gust Speed 28 mph    
Visibility 10 miles    
Events      
Averages and records for this station are not official NWS values.
T = Trace of Precipitation, MM = Missing Value Source: NWS Daily Summary

Daily Weather History Graph

Daily Weather History Graph

Search for Another Location

Airport or City:

Trip Planner

Search our weather history database for the weather conditions in past years. The results will help you decide how hot, cold, wet, or windy it might be!

Date:

Astronomy

Mar. 13, 2015 Rise Set
Actual Time 7:34 AM CDT 7:21 PM CDT
Civil Twilight 7:05 AM CDT 7:50 PM CDT
Nautical Twilight 6:31 AM CDT 8:24 PM CDT
Astronomical Twilight 5:56 AM CDT 8:59 PM CDT
Moon 2:18 AM CDT (3/13) 12:04 PM CDT (3/13)
Length of Visible Light 12h 45m
Length of Day
11h 46m
Waning Gibbous, 50% of the Moon is Illuminated
Mar 13
Waning Gibbous
Mar 13
Last Quarter
Mar 20
New
Mar 27
First Quarter
Apr 4
Full

Hourly Weather History & Observations

Time (CDT) Temp. Windchill Dew Point Humidity Pressure Visibility Wind Dir Wind Speed Gust Speed Precip Events Conditions
12:12 AM 53.6 °F - 42.8 °F 67% 30.01 in 10.0 mi South 5.8 mph - N/A   Clear
12:33 AM 53.6 °F - 42.8 °F 67% 30.01 in 10.0 mi Calm Calm - N/A   Clear
12:53 AM 51.8 °F - 41.0 °F 67% 30.01 in 10.0 mi SSW 4.6 mph - N/A   Clear
1:12 AM 50.0 °F - 41.0 °F 71% 30.01 in 10.0 mi SSW 3.5 mph - N/A   Clear
1:33 AM 50.0 °F - 41.0 °F 71% 30.01 in 10.0 mi SSW 5.8 mph - N/A   Clear
1:53 AM 48.2 °F - 41.0 °F 76% 30.01 in 10.0 mi SSW 4.6 mph - N/A   Clear
2:12 AM 48.2 °F - 41.0 °F 76% 30.01 in 10.0 mi SSW 4.6 mph - N/A   Clear
2:33 AM 48.2 °F - 41.0 °F 76% 30.02 in 10.0 mi SSW 3.5 mph - N/A   Clear
2:53 AM 48.2 °F - 41.0 °F 76% 30.01 in 10.0 mi SSW 3.5 mph - N/A   Clear
3:12 AM 46.4 °F - 41.0 °F 81% 30.02 in 10.0 mi Calm Calm - N/A   Clear
3:33 AM 46.4 °F 45.2 °F 41.0 °F 81% 30.01 in 10.0 mi SW 3.5 mph - N/A   Clear
3:53 AM 44.6 °F 43.1 °F 41.0 °F 87% 30.01 in 10.0 mi SW 3.5 mph - N/A   Clear
4:12 AM 44.6 °F 42.2 °F 41.0 °F 87% 30.01 in 10.0 mi SW 4.6 mph - N/A   Clear
4:33 AM 44.6 °F 42.2 °F 41.0 °F 87% 30.02 in 10.0 mi SW 4.6 mph - N/A   Clear
4:53 AM 44.6 °F 41.4 °F 41.0 °F 87% 30.02 in 10.0 mi WSW 5.8 mph - N/A   Clear
5:12 AM 42.8 °F 41.1 °F 42.8 °F 100% 30.02 in 10.0 mi WSW 3.5 mph - N/A   Clear
5:33 AM 42.8 °F 41.1 °F 42.8 °F 100% 30.02 in 10.0 mi WSW 3.5 mph - N/A   Clear
5:53 AM 42.8 °F 40.1 °F 42.8 °F 100% 30.03 in 10.0 mi West 4.6 mph - N/A   Clear
6:12 AM 42.8 °F 39.3 °F 41.0 °F 93% 30.04 in 10.0 mi West 5.8 mph - N/A   Clear
6:33 AM 42.8 °F 39.3 °F 41.0 °F 93% 30.04 in 10.0 mi West 5.8 mph - N/A   Clear
6:53 AM 42.8 °F 38.6 °F 39.2 °F 87% 30.04 in 10.0 mi West 6.9 mph - N/A   Clear
7:12 AM 42.8 °F 38.6 °F 39.2 °F 87% 30.04 in 10.0 mi West 6.9 mph - N/A   Clear
7:33 AM 41.0 °F 37.1 °F 39.2 °F 93% 30.05 in 10.0 mi West 5.8 mph - N/A   Clear
7:52 AM 41.0 °F 34.3 °F 39.2 °F 93% 30.05 in 10.0 mi WNW 11.5 mph - N/A   Clear
8:13 AM 42.8 °F 36.6 °F 39.2 °F 87% 30.06 in 10.0 mi WNW 11.5 mph - N/A   Clear
8:33 AM 41.0 °F 36.4 °F 37.4 °F 87% 30.06 in 10.0 mi WNW 6.9 mph - N/A   Clear
8:52 AM 41.0 °F 35.8 °F 39.2 °F 93% 30.06 in 10.0 mi West 8.1 mph - N/A   Clear
9:13 AM 42.8 °F 38.6 °F 39.2 °F 87% 30.08 in 10.0 mi West 6.9 mph - N/A   Unknown
9:33 AM 44.6 °F 40.2 °F 39.2 °F 81% 30.08 in 10.0 mi WNW 8.1 mph - N/A   Clear
9:53 AM 46.4 °F 41.5 °F 41.0 °F 81% 30.08 in 10.0 mi WNW 10.4 mph 18.4 mph N/A   Clear
10:12 AM 46.4 °F 40.7 °F 41.0 °F 81% 30.08 in 10.0 mi WNW 12.7 mph 18.4 mph N/A   Clear
10:33 AM 48.2 °F - 41.0 °F 76% 30.08 in 10.0 mi WNW 11.5 mph - N/A   Clear
10:53 AM 48.2 °F - 41.0 °F 76% 30.09 in 10.0 mi WNW 12.7 mph - N/A   Clear
11:12 AM 51.8 °F - 42.8 °F 71% 30.09 in 10.0 mi WNW 15.0 mph 19.6 mph N/A   Clear
11:33 AM 51.8 °F - 42.8 °F 71% 30.10 in 10.0 mi WNW 16.1 mph 20.7 mph N/A   Clear
11:53 AM 51.8 °F - 42.8 °F 71% 30.10 in 10.0 mi WNW 13.8 mph 18.4 mph N/A   Clear
12:12 PM 51.8 °F - 39.2 °F 62% 30.10 in 10.0 mi WNW 19.6 mph 23.0 mph N/A   Clear
12:33 PM 51.8 °F - 41.0 °F 67% 30.11 in 10.0 mi NW 15.0 mph 21.9 mph N/A   Clear
12:53 PM 51.8 °F - 41.0 °F 67% 30.11 in 10.0 mi WNW 16.1 mph 23.0 mph N/A   Clear
1:12 PM 51.8 °F - 39.2 °F 62% 30.11 in 10.0 mi WNW 15.0 mph 21.9 mph N/A   Clear
1:33 PM 51.8 °F - 41.0 °F 67% 30.12 in 10.0 mi WNW 12.7 mph 23.0 mph N/A   Clear
1:53 PM 51.8 °F - 41.0 °F 67% 30.12 in 10.0 mi WNW 12.7 mph - N/A   Clear
2:12 PM 51.8 °F - 39.2 °F 62% 30.11 in 10.0 mi NW 15.0 mph 24.2 mph N/A   Clear
2:33 PM 53.6 °F - 39.2 °F 58% 30.11 in 10.0 mi WNW 19.6 mph 26.5 mph N/A   Clear
2:53 PM 51.8 °F - 39.2 °F 62% 30.11 in 10.0 mi WNW 18.4 mph 24.2 mph N/A   Clear
3:12 PM 53.6 °F - 39.2 °F 58% 30.11 in 10.0 mi NW 18.4 mph 27.6 mph N/A   Clear
3:33 PM 53.6 °F - 39.2 °F 58% 30.11 in 10.0 mi WNW 17.3 mph 24.2 mph N/A   Clear
3:53 PM 53.6 °F - 41.0 °F 62% 30.11 in 10.0 mi WNW 15.0 mph 23.0 mph N/A   Clear
4:12 PM 53.6 °F - 41.0 °F 62% 30.11 in 10.0 mi WNW 18.4 mph 24.2 mph N/A   Clear
4:33 PM 51.8 °F - 39.2 °F 62% 30.12 in 10.0 mi NW 13.8 mph 25.3 mph N/A   Clear
4:53 PM 51.8 °F - 39.2 °F 62% 30.13 in 10.0 mi NW 13.8 mph 25.3 mph N/A   Clear
5:12 PM 51.8 °F - 39.2 °F 62% 30.13 in 10.0 mi NW 18.4 mph 27.6 mph N/A   Clear
5:33 PM 50.0 °F - 39.2 °F 66% 30.13 in 10.0 mi NW 16.1 mph 23.0 mph N/A   Clear
5:53 PM 50.0 °F - 39.2 °F 66% 30.14 in 10.0 mi NW 21.9 mph 27.6 mph N/A   Clear
6:12 PM 50.0 °F - 39.2 °F 66% 30.14 in 10.0 mi NW 13.8 mph 23.0 mph N/A   Clear
6:33 PM 48.2 °F - 37.4 °F 66% 30.15 in 10.0 mi NW 17.3 mph 24.2 mph N/A   Clear
6:53 PM 48.2 °F - 37.4 °F 66% 30.16 in 10.0 mi NW 10.4 mph 19.6 mph N/A   Clear
7:12 PM 46.4 °F 41.1 °F 37.4 °F 71% 30.16 in 10.0 mi NW 11.5 mph 19.6 mph N/A   Clear
7:33 PM 46.4 °F 41.9 °F 37.4 °F 71% 30.16 in 10.0 mi NW 9.2 mph - N/A   Clear
7:53 PM 46.4 °F 41.5 °F 37.4 °F 71% 30.17 in 10.0 mi NW 10.4 mph - N/A   Clear
8:13 PM 44.6 °F 40.2 °F 37.4 °F 76% 30.18 in 10.0 mi NW 8.1 mph - N/A   Clear
8:32 PM 44.6 °F 40.2 °F 37.4 °F 76% 30.18 in 10.0 mi NW 8.1 mph - N/A   Clear
8:53 PM 42.8 °F 38.6 °F 37.4 °F 81% 30.18 in 10.0 mi WNW 6.9 mph - N/A   Clear
9:13 PM 42.8 °F 38.0 °F 37.4 °F 81% 30.19 in 10.0 mi NW 8.1 mph - N/A   Clear
9:33 PM 42.8 °F 38.0 °F 37.4 °F 81% 30.20 in 10.0 mi NW 8.1 mph - N/A   Clear
9:53 PM 41.0 °F 34.7 °F 35.6 °F 81% 30.20 in 10.0 mi NW 10.4 mph 16.1 mph N/A   Clear
10:13 PM 39.2 °F 33.0 °F 35.6 °F 87% 30.20 in 10.0 mi NNW 9.2 mph - N/A   Clear
10:33 PM 39.2 °F 32.5 °F 35.6 °F 87% 30.20 in 10.0 mi NNW 10.4 mph - N/A   Clear
10:53 PM 39.2 °F 33.6 °F 35.6 °F 87% 30.21 in 10.0 mi NW 8.1 mph - N/A   Clear
11:13 PM 39.2 °F 33.6 °F 35.6 °F 87% 30.21 in 10.0 mi NW 8.1 mph - N/A   Clear
11:33 PM 39.2 °F 34.2 °F 35.6 °F 87% 30.21 in 10.0 mi NW 6.9 mph - N/A   Clear
11:52 PM 39.2 °F 34.2 °F 35.6 °F 87% 30.21 in 10.0 mi WNW 6.9 mph - N/A   Clear